Time,TemperatureF,DewpointF,PressureIn,WindDirection,WindDirectionDegrees,WindSpeedMPH,WindSpeedGustMPH,Humidity,HourlyPrecipIn,Conditions,Clouds,dailyrainin,SoftwareType,DateUTC
2013-01-31 00:04:00,43.5,41.0,22.12,SE,129,0.0,0.0,91,0.00,,---,0.00,VWS V13.01,2013-01-31 08:04:00,
2013-01-31 00:09:00,43.5,41.0,22.12,SE,129,0.0,0.0,91,0.00,,---,0.00,VWS V13.01,2013-01-31 08:09:00,
2013-01-31 00:14:00,43.6,41.4,22.12,SE,129,0.0,0.0,92,0.00,,---,0.00,VWS V13.01,2013-01-31 08:14:00,
2013-01-31 00:19:00,44.0,41.8,22.12,SE,129,0.0,0.0,92,0.00,,---,0.00,VWS V13.01,2013-01-31 08:19:00,
2013-01-31 00:24:00,44.1,41.7,22.12,SE,129,0.0,0.0,91,0.00,,---,0.00,VWS V13.01,2013-01-31 08:24:00,
2013-01-31 00:29:00,44.0,41.5,22.11,SE,129,0.0,0.0,91,0.00,,---,0.00,VWS V13.01,2013-01-31 08:29:00,
2013-01-31 00:34:00,44.1,41.7,22.12,SE,129,0.0,0.0,91,0.00,,---,0.00,VWS V13.01,2013-01-31 08:34:00,
2013-01-31 00:39:00,43.9,41.2,22.11,SE,129,0.0,0.0,90,0.00,,---,0.00,VWS V13.01,2013-01-31 08:39:00,
2013-01-31 00:44:00,43.6,40.9,22.11,SE,129,0.0,0.0,90,0.00,,---,0.00,VWS V13.01,2013-01-31 08:44:00,
2013-01-31 00:49:00,43.4,40.7,22.11,SE,129,0.0,0.0,90,0.00,,---,0.00,VWS V13.01,2013-01-31 08:49:00,
2013-01-31 00:54:00,43.3,40.6,22.11,SE,129,0.0,0.0,90,0.00,,---,0.00,VWS V13.01,2013-01-31 08:54:00,
2013-01-31 00:59:00,43.2,40.8,22.11,SE,129,0.0,0.0,91,0.00,,---,0.00,VWS V13.01,2013-01-31 08:59:00,
2013-01-31 01:04:00,43.2,40.5,22.11,SE,129,0.0,0.0,90,0.00,,---,0.00,VWS V13.01,2013-01-31 09:04:00,
2013-01-31 01:09:00,43.2,40.5,22.11,SE,129,0.0,0.0,90,0.00,,---,0.00,VWS V13.01,2013-01-31 09:09:00,
2013-01-31 01:14:00,43.0,40.6,22.11,SE,129,0.0,0.0,91,0.00,,---,0.00,VWS V13.01,2013-01-31 09:14:00,
2013-01-31 01:19:00,42.9,40.5,22.11,SE,129,0.0,0.0,91,0.00,,---,0.00,VWS V13.01,2013-01-31 09:19:00,
2013-01-31 01:24:00,42.9,40.2,22.11,SE,129,0.0,0.0,90,0.00,,---,0.00,VWS V13.01,2013-01-31 09:24:00,
2013-01-31 01:29:00,42.8,40.1,22.11,SE,129,0.0,0.0,90,0.00,,---,0.00,VWS V13.01,2013-01-31 09:29:00,
2013-01-31 01:34:00,42.6,40.2,22.11,SE,129,0.0,0.0,91,0.00,,---,0.00,VWS V13.01,2013-01-31 09:34:00,
2013-01-31 01:39:00,42.2,39.8,22.10,SE,129,0.0,0.0,91,0.00,,---,0.00,VWS V13.01,2013-01-31 09:39:00,
2013-01-31 01:44:00,42.1,39.7,22.11,SE,129,0.0,0.0,91,0.00,,---,0.00,VWS V13.01,2013-01-31 09:44:00,
2013-01-31 01:49:00,42.1,39.7,22.11,SE,129,0.0,0.0,91,0.00,,---,0.00,VWS V13.01,2013-01-31 09:49:00,
2013-01-31 01:54:00,42.0,39.6,22.11,SE,129,0.0,0.0,91,0.00,,---,0.00,VWS V13.01,2013-01-31 09:54:00,
2013-01-31 01:59:00,42.0,39.8,22.11,SE,129,0.0,0.0,92,0.00,,---,0.00,VWS V13.01,2013-01-31 09:59:00,
2013-01-31 02:04:00,42.2,40.0,22.11,SE,129,0.0,1.0,92,0.00,,---,0.00,VWS V13.01,2013-01-31 10:04:00,
2013-01-31 02:09:00,42.2,40.0,22.11,SE,129,0.0,1.0,92,0.00,,---,0.00,VWS V13.01,2013-01-31 10:09:00,
2013-01-31 02:14:00,42.3,40.2,22.11,SE,129,0.0,1.0,92,0.00,,---,0.00,VWS V13.01,2013-01-31 10:14:00,
2013-01-31 02:19:00,42.3,40.2,22.12,SE,129,0.0,1.0,92,0.00,,---,0.00,VWS V13.01,2013-01-31 10:19:00,
2013-01-31 02:25:00,42.5,40.3,22.11,SE,129,0.0,1.0,92,0.00,,---,0.00,VWS V13.01,2013-01-31 10:25:00,
2013-01-31 02:30:00,42.5,40.3,22.11,SE,129,0.0,1.0,92,0.00,,---,0.00,VWS V13.01,2013-01-31 10:30:00,
2013-01-31 02:35:00,42.3,39.9,22.11,SE,129,0.0,0.0,91,0.00,,---,0.00,VWS V13.01,2013-01-31 10:35:00,
2013-01-31 02:40:00,42.1,39.7,22.10,SE,129,0.0,0.0,91,0.00,,---,0.00,VWS V13.01,2013-01-31 10:40:00,
2013-01-31 02:45:00,42.1,39.7,22.10,SE,129,0.0,0.0,91,0.00,,---,0.00,VWS V13.01,2013-01-31 10:45:00,
2013-01-31 02:50:00,42.1,39.7,22.10,SE,129,0.0,0.0,91,0.00,,---,0.00,VWS V13.01,2013-01-31 10:50:00,
2013-01-31 02:55:00,41.9,39.5,22.10,SE,129,0.0,0.0,91,0.00,,---,0.00,VWS V13.01,2013-01-31 10:55:00,
2013-01-31 03:00:00,41.8,39.7,22.10,SE,129,0.0,0.0,92,0.00,,---,0.00,VWS V13.01,2013-01-31 11:00:00,
2013-01-31 03:05:00,41.7,39.5,22.10,SE,129,0.0,0.0,92,0.00,,---,0.00,VWS V13.01,2013-01-31 11:05:00,
2013-01-31 03:10:00,41.6,39.5,22.10,SE,129,0.0,0.0,92,0.00,,---,0.00,VWS V13.01,2013-01-31 11:10:00,
2013-01-31 03:15:00,41.5,39.3,22.10,SE,129,0.0,0.0,92,0.00,,---,0.00,VWS V13.01,2013-01-31 11:15:00,
2013-01-31 03:20:00,41.3,39.2,22.10,SE,129,0.0,0.0,92,0.00,,---,0.00,VWS V13.01,2013-01-31 11:20:00,
2013-01-31 03:25:00,41.1,39.2,22.10,SE,129,0.0,0.0,93,0.00,,---,0.00,VWS V13.01,2013-01-31 11:25:00,
2013-01-31 03:30:00,41.2,39.1,22.10,SE,129,0.0,0.0,92,0.00,,---,0.00,VWS V13.01,2013-01-31 11:30:00,
2013-01-31 03:35:00,41.2,39.3,22.10,SE,129,0.0,0.0,93,0.00,,---,0.00,VWS V13.01,2013-01-31 11:35:00,
2013-01-31 03:40:00,41.1,39.0,22.10,SE,129,0.0,0.0,92,0.00,,---,0.00,VWS V13.01,2013-01-31 11:40:00,
2013-01-31 03:45:00,41.0,38.9,22.11,SE,129,0.0,0.0,92,0.00,,---,0.00,VWS V13.01,2013-01-31 11:45:00,
2013-01-31 03:50:00,40.8,38.7,22.10,SE,129,0.0,0.0,92,0.00,,---,0.00,VWS V13.01,2013-01-31 11:50:00,
2013-01-31 03:55:00,40.7,38.6,22.11,SE,129,0.0,0.0,92,0.00,,---,0.00,VWS V13.01,2013-01-31 11:55:00,
2013-01-31 04:00:00,40.5,38.1,22.11,SE,129,0.0,0.0,91,0.00,,---,0.00,VWS V13.01,2013-01-31 12:00:00,
2013-01-31 04:05:00,40.3,37.9,22.11,SE,129,0.0,0.0,91,0.00,,---,0.00,VWS V13.01,2013-01-31 12:05:00,
2013-01-31 04:10:00,40.0,37.6,22.11,SE,129,0.0,0.0,91,0.00,,---,0.00,VWS V13.01,2013-01-31 12:10:00,
2013-01-31 04:15:00,39.9,37.8,22.10,SE,129,0.0,0.0,92,0.00,,---,0.00,VWS V13.01,2013-01-31 12:15:00,
2013-01-31 04:20:00,39.8,37.7,22.11,SE,129,0.0,0.0,92,0.00,,---,0.00,VWS V13.01,2013-01-31 12:20:00,
2013-01-31 04:25:00,39.7,37.6,22.10,SE,129,0.0,0.0,92,0.00,,---,0.00,VWS V13.01,2013-01-31 12:25:00,
2013-01-31 04:30:00,39.6,37.5,22.10,SE,129,0.0,0.0,92,0.00,,---,0.00,VWS V13.01,2013-01-31 12:30:00,
2013-01-31 04:35:00,39.5,37.4,22.10,SE,129,0.0,0.0,92,0.00,,---,0.00,VWS V13.01,2013-01-31 12:35:00,
2013-01-31 04:40:00,39.5,37.4,22.10,SE,129,0.0,0.0,92,0.00,,---,0.00,VWS V13.01,2013-01-31 12:40:00,
2013-01-31 04:45:00,39.6,37.5,22.10,SE,129,0.0,0.0,92,0.00,,---,0.00,VWS V13.01,2013-01-31 12:45:00,
2013-01-31 04:50:00,39.7,37.6,22.10,SE,129,0.0,0.0,92,0.00,,---,0.00,VWS V13.01,2013-01-31 12:50:00,
2013-01-31 04:55:00,39.6,37.2,22.11,SE,129,0.0,0.0,91,0.00,,---,0.00,VWS V13.01,2013-01-31 12:55:00,
2013-01-31 05:00:00,39.5,37.4,22.10,SE,129,0.0,0.0,92,0.00,,---,0.00,VWS V13.01,2013-01-31 13:00:00,
2013-01-31 05:05:00,39.3,37.2,22.11,SE,129,0.0,0.0,92,0.00,,---,0.00,VWS V13.01,2013-01-31 13:05:00,
2013-01-31 05:10:00,39.2,37.1,22.11,SE,129,0.0,0.0,92,0.00,,---,0.00,VWS V13.01,2013-01-31 13:10:00,
2013-01-31 05:15:00,39.0,37.2,22.11,SE,129,0.0,0.0,93,0.00,,---,0.00,VWS V13.01,2013-01-31 13:15:00,
2013-01-31 05:20:00,39.0,37.2,22.10,SE,129,0.0,0.0,93,0.00,,---,0.00,VWS V13.01,2013-01-31 13:20:00,
2013-01-31 05:25:00,39.0,37.2,22.11,SE,129,0.0,0.0,93,0.00,,---,0.00,VWS V13.01,2013-01-31 13:25:00,
2013-01-31 05:30:00,39.0,37.2,22.11,SE,129,0.0,0.0,93,0.00,,---,0.00,VWS V13.01,2013-01-31 13:30:00,
2013-01-31 05:35:00,38.9,37.0,22.11,SE,129,0.0,0.0,93,0.00,,---,0.00,VWS V13.01,2013-01-31 13:35:00,
2013-01-31 05:40:00,38.8,37.0,22.11,SE,129,0.0,0.0,93,0.00,,---,0.00,VWS V13.01,2013-01-31 13:40:00,
2013-01-31 05:45:00,38.7,36.8,22.11,SE,129,0.0,0.0,93,0.00,,---,0.00,VWS V13.01,2013-01-31 13:45:00,
2013-01-31 05:50:00,38.6,36.8,22.11,SE,129,0.0,0.0,93,0.00,,---,0.00,VWS V13.01,2013-01-31 13:50:00,
2013-01-31 05:55:00,38.6,36.8,22.11,SE,129,0.0,0.0,93,0.00,,---,0.00,VWS V13.01,2013-01-31 13:55:00,
2013-01-31 06:00:00,38.5,36.7,22.11,SE,129,0.0,0.0,93,0.00,,---,0.00,VWS V13.01,2013-01-31 14:00:00,
2013-01-31 06:05:00,38.4,36.6,22.11,SE,129,0.0,0.0,93,0.00,,---,0.00,VWS V13.01,2013-01-31 14:05:00,
2013-01-31 06:10:00,38.4,36.6,22.11,SE,129,0.0,0.0,93,0.00,,---,0.00,VWS V13.01,2013-01-31 14:10:00,
2013-01-31 06:15:00,38.2,36.4,22.11,SE,129,0.0,0.0,93,0.00,,---,0.00,VWS V13.01,2013-01-31 14:15:00,
2013-01-31 06:20:00,38.2,36.4,22.11,SE,129,0.0,0.0,93,0.00,,---,0.00,VWS V13.01,2013-01-31 14:20:00,
2013-01-31 06:25:00,38.1,36.3,22.11,SE,129,0.0,0.0,93,0.00,,---,0.00,VWS V13.01,2013-01-31 14:25:00,
2013-01-31 06:30:00,38.0,36.2,22.11,SE,129,0.0,0.0,93,0.00,,---,0.00,VWS V13.01,2013-01-31 14:30:00,
2013-01-31 06:35:00,37.8,35.7,22.11,SE,129,0.0,0.0,92,0.00,,---,0.00,VWS V13.01,2013-01-31 14:35:00,
2013-01-31 06:40:00,37.8,36.0,22.11,SE,129,0.0,0.0,93,0.00,,---,0.00,VWS V13.01,2013-01-31 14:40:00,
2013-01-31 06:45:00,37.9,36.1,22.12,SE,129,0.0,0.0,93,0.00,,---,0.00,VWS V13.01,2013-01-31 14:45:00,
2013-01-31 06:50:00,37.9,36.1,22.12,SE,129,0.0,0.0,93,0.00,,---,0.00,VWS V13.01,2013-01-31 14:50:00,
2013-01-31 06:55:00,37.9,36.1,22.12,SE,129,0.0,0.0,93,0.00,,---,0.00,VWS V13.01,2013-01-31 14:55:00,
2013-01-31 07:00:00,37.8,36.2,22.12,SE,129,0.0,0.0,94,0.00,,---,0.00,VWS V13.01,2013-01-31 15:00:00,
2013-01-31 07:05:00,37.7,36.1,22.12,SE,129,0.0,0.0,94,0.00,,---,0.00,VWS V13.01,2013-01-31 15:05:00,
2013-01-31 07:10:00,37.7,35.9,22.13,SE,129,0.0,0.0,93,0.00,,---,0.00,VWS V13.01,2013-01-31 15:10:00,
2013-01-31 07:15:00,37.7,36.1,22.12,SE,129,0.0,0.0,94,0.00,,---,0.00,VWS V13.01,2013-01-31 15:15:00,
2013-01-31 07:20:00,37.6,36.0,22.12,SE,129,0.0,0.0,94,0.00,,---,0.00,VWS V13.01,2013-01-31 15:20:00,
2013-01-31 07:25:00,37.8,36.2,22.12,SE,129,0.0,0.0,94,0.00,,---,0.00,VWS V13.01,2013-01-31 15:25:00,
2013-01-31 07:30:00,37.9,36.3,22.13,SE,129,0.0,0.0,94,0.00,,---,0.00,VWS V13.01,2013-01-31 15:30:00,
2013-01-31 07:35:00,38.1,36.5,22.13,SE,129,0.0,0.0,94,0.00,,---,0.00,VWS V13.01,2013-01-31 15:35:00,
2013-01-31 07:40:00,38.1,36.8,22.14,SE,129,0.0,0.0,95,0.00,,---,0.00,VWS V13.01,2013-01-31 15:40:00,
2013-01-31 07:45:00,38.3,37.0,22.13,SE,129,0.0,0.0,95,0.00,,---,0.00,VWS V13.01,2013-01-31 15:45:00,
2013-01-31 07:50:00,38.5,37.2,22.14,SE,129,0.0,0.0,95,0.00,,---,0.00,VWS V13.01,2013-01-31 15:50:00,
2013-01-31 07:55:00,38.8,37.5,22.14,SE,129,0.0,0.0,95,0.00,,---,0.00,VWS V13.01,2013-01-31 15:55:00,
2013-01-31 08:00:00,39.0,37.7,22.14,SE,129,0.0,0.0,95,0.00,,---,0.00,VWS V13.01,2013-01-31 16:00:00,
2013-01-31 08:06:00,39.4,38.4,22.14,SE,129,0.0,0.0,96,0.00,,---,0.00,VWS V13.01,2013-01-31 16:06:00,
2013-01-31 08:11:00,39.7,38.4,22.14,SE,129,0.0,0.0,95,0.00,,---,0.00,VWS V13.01,2013-01-31 16:11:00,
2013-01-31 08:16:00,40.1,38.8,22.14,SE,129,0.0,0.0,95,0.00,,---,0.00,VWS V13.01,2013-01-31 16:16:00,
2013-01-31 08:21:00,40.5,39.2,22.14,SE,129,0.0,0.0,95,0.00,,---,0.00,VWS V13.01,2013-01-31 16:21:00,
2013-01-31 08:26:00,41.1,39.8,22.14,SE,129,0.0,0.0,95,0.00,,---,0.00,VWS V13.01,2013-01-31 16:26:00,
2013-01-31 08:31:00,41.7,40.4,22.14,SE,129,0.0,0.0,95,0.00,,---,0.00,VWS V13.01,2013-01-31 16:31:00,
2013-01-31 08:36:00,42.3,40.7,22.14,SE,129,0.0,0.0,94,0.00,,---,0.00,VWS V13.01,2013-01-31 16:36:00,
2013-01-31 08:41:00,42.9,41.0,22.14,SE,129,0.0,0.0,93,0.00,,---,0.00,VWS V13.01,2013-01-31 16:41:00,
2013-01-31 08:46:00,43.5,41.3,22.15,SE,129,0.0,0.0,92,0.00,,---,0.00,VWS V13.01,2013-01-31 16:46:00,
2013-01-31 08:51:00,44.0,41.8,22.14,SE,129,0.0,0.0,92,0.00,,---,0.00,VWS V13.01,2013-01-31 16:51:00,
2013-01-31 08:56:00,44.5,41.8,22.14,SE,129,0.0,0.0,90,0.00,,---,0.00,VWS V13.01,2013-01-31 16:56:00,
2013-01-31 09:01:00,45.0,42.2,22.14,SE,129,0.0,0.0,90,0.00,,---,0.00,VWS V13.01,2013-01-31 17:01:00,
2013-01-31 09:06:00,45.5,42.5,22.14,SE,129,0.0,0.0,89,0.00,,---,0.00,VWS V13.01,2013-01-31 17:06:00,
2013-01-31 09:11:00,46.0,42.7,22.14,SE,129,0.0,0.0,88,0.00,,---,0.00,VWS V13.01,2013-01-31 17:11:00,
2013-01-31 09:16:00,46.4,43.0,22.14,SE,129,0.0,0.0,88,0.00,,---,0.00,VWS V13.01,2013-01-31 17:16:00,
2013-01-31 09:21:00,46.8,43.1,22.14,SE,129,0.0,0.0,87,0.00,,---,0.00,VWS V13.01,2013-01-31 17:21:00,
2013-01-31 09:26:00,47.2,43.5,22.14,SE,129,0.0,0.0,87,0.00,,---,0.00,VWS V13.01,2013-01-31 17:26:00,
2013-01-31 09:31:00,47.6,43.6,22.13,SE,129,0.0,0.0,86,0.00,,---,0.00,VWS V13.01,2013-01-31 17:31:00,
2013-01-31 09:36:00,48.0,44.0,22.13,SE,129,0.0,0.0,86,0.00,,---,0.00,VWS V13.01,2013-01-31 17:36:00,
2013-01-31 09:41:00,48.5,44.2,22.13,SE,129,0.0,0.0,85,0.00,,---,0.00,VWS V13.01,2013-01-31 17:41:00,
2013-01-31 09:46:00,48.9,44.3,22.13,SE,129,0.0,0.0,84,0.00,,---,0.00,VWS V13.01,2013-01-31 17:46:00,
2013-01-31 09:51:00,49.2,44.6,22.13,SE,129,0.0,0.0,84,0.00,,---,0.00,VWS V13.01,2013-01-31 17:51:00,
2013-01-31 09:56:00,49.6,44.3,22.13,SE,129,0.0,0.0,82,0.00,,---,0.00,VWS V13.01,2013-01-31 17:56:00,
2013-01-31 10:01:00,49.9,44.6,22.13,SE,129,0.0,0.0,82,0.00,,---,0.00,VWS V13.01,2013-01-31 18:01:00,
2013-01-31 10:06:00,50.3,45.0,22.12,SE,129,0.0,0.0,82,0.00,,---,0.00,VWS V13.01,2013-01-31 18:06:00,
2013-01-31 10:11:00,50.7,45.4,22.12,SE,129,0.0,0.0,82,0.00,,---,0.00,VWS V13.01,2013-01-31 18:11:00,
2013-01-31 10:16:00,51.1,45.5,22.12,SE,129,0.0,0.0,81,0.00,,---,0.00,VWS V13.01,2013-01-31 18:16:00,
2013-01-31 10:21:00,51.5,45.9,22.12,SE,129,0.0,0.0,81,0.00,,---,0.00,VWS V13.01,2013-01-31 18:21:00,
2013-01-31 10:26:00,51.8,45.8,22.12,SE,129,0.0,0.0,80,0.00,,---,0.00,VWS V13.01,2013-01-31 18:26:00,
2013-01-31 10:31:00,52.3,46.3,22.12,SE,129,0.0,0.0,80,0.00,,---,0.00,VWS V13.01,2013-01-31 18:31:00,
2013-01-31 10:36:00,52.6,46.3,22.12,SE,129,0.0,0.0,79,0.00,,---,0.00,VWS V13.01,2013-01-31 18:36:00,
2013-01-31 10:41:00,53.1,46.8,22.12,SE,129,0.0,0.0,79,0.00,,---,0.00,VWS V13.01,2013-01-31 18:41:00,
2013-01-31 10:46:00,53.5,46.8,22.11,SE,129,0.0,0.0,78,0.00,,---,0.00,VWS V13.01,2013-01-31 18:46:00,
2013-01-31 10:51:00,53.9,46.9,22.11,SE,129,0.0,0.0,77,0.00,,---,0.00,VWS V13.01,2013-01-31 18:51:00,
2013-01-31 10:56:00,54.2,47.2,22.11,SE,129,0.0,0.0,77,0.00,,---,0.00,VWS V13.01,2013-01-31 18:56:00,
2013-01-31 11:01:00,54.6,47.5,22.11,SE,129,0.0,0.0,77,0.00,,---,0.00,VWS V13.01,2013-01-31 19:01:00,
2013-01-31 11:06:00,55.0,47.2,22.10,SE,129,0.0,0.0,75,0.00,,---,0.00,VWS V13.01,2013-01-31 19:06:00,
2013-01-31 11:11:00,55.4,47.6,22.10,SE,129,0.0,0.0,75,0.00,,---,0.00,VWS V13.01,2013-01-31 19:11:00,
2013-01-31 11:16:00,55.7,47.9,22.10,SE,129,0.0,0.0,75,0.00,,---,0.00,VWS V13.01,2013-01-31 19:16:00,
2013-01-31 11:21:00,56.0,47.8,22.10,SE,129,0.0,0.0,74,0.00,,---,0.00,VWS V13.01,2013-01-31 19:21:00,
2013-01-31 11:26:00,56.4,48.2,22.09,SE,129,0.0,0.0,74,0.00,,---,0.00,VWS V13.01,2013-01-31 19:26:00,
2013-01-31 11:31:00,56.7,48.5,22.09,SE,129,0.0,0.0,74,0.00,,---,0.00,VWS V13.01,2013-01-31 19:31:00,
2013-01-31 11:36:00,57.2,49.0,22.08,SE,129,0.0,0.0,74,0.00,,---,0.00,VWS V13.01,2013-01-31 19:36:00,
2013-01-31 11:41:00,57.5,48.6,22.09,SE,129,0.0,0.0,72,0.00,,---,0.00,VWS V13.01,2013-01-31 19:41:00,
2013-01-31 11:46:00,57.6,49.0,22.08,SE,129,0.0,0.0,73,0.00,,---,0.00,VWS V13.01,2013-01-31 19:46:00,
2013-01-31 11:51:00,57.8,48.8,22.07,SE,129,0.0,0.0,72,0.00,,---,0.00,VWS V13.01,2013-01-31 19:51:00,
2013-01-31 11:56:00,58.1,49.9,22.07,SE,129,0.0,0.0,74,0.00,,---,0.00,VWS V13.01,2013-01-31 19:56:00,
2013-01-31 12:01:00,58.1,49.1,22.07,ESE,121,0.0,0.0,72,0.00,,---,0.00,VWS V13.01,2013-01-31 20:01:00,
2013-01-31 12:06:00,58.0,49.0,22.06,ESE,116,0.0,0.0,72,0.00,,---,0.00,VWS V13.01,2013-01-31 20:06:00,
2013-01-31 12:11:00,58.1,49.1,22.06,NE,53,0.0,0.0,72,0.00,,---,0.00,VWS V13.01,2013-01-31 20:11:00,
2013-01-31 12:16:00,58.2,49.2,22.06,NE,53,0.0,0.0,72,0.00,,---,0.00,VWS V13.01,2013-01-31 20:16:00,
2013-01-31 12:21:00,58.6,50.0,22.05,NE,54,0.0,0.0,73,0.00,,---,0.00,VWS V13.01,2013-01-31 20:21:00,
2013-01-31 12:26:00,58.7,49.3,22.05,NE,50,0.0,0.0,71,0.00,,---,0.00,VWS V13.01,2013-01-31 20:26:00,
2013-01-31 12:31:00,58.8,49.4,22.05,NE,48,0.0,0.0,71,0.00,,---,0.00,VWS V13.01,2013-01-31 20:31:00,
2013-01-31 12:36:00,58.9,49.5,22.05,NE,48,0.0,0.0,71,0.00,,---,0.00,VWS V13.01,2013-01-31 20:36:00,
2013-01-31 12:41:00,59.3,49.9,22.04,NE,48,0.0,0.0,71,0.00,,---,0.00,VWS V13.01,2013-01-31 20:41:00,
2013-01-31 12:46:00,59.5,50.1,22.04,NE,47,0.0,0.0,71,0.00,,---,0.00,VWS V13.01,2013-01-31 20:46:00,
2013-01-31 12:51:00,59.6,49.8,22.04,NE,47,0.0,0.0,70,0.00,,---,0.00,VWS V13.01,2013-01-31 20:51:00,
2013-01-31 12:56:00,60.2,50.0,22.03,NE,47,0.0,0.0,69,0.00,,---,0.00,VWS V13.01,2013-01-31 20:56:00,
2013-01-31 13:01:00,60.1,50.3,22.03,NE,47,0.0,0.0,70,0.00,,---,0.00,VWS V13.01,2013-01-31 21:01:00,
2013-01-31 13:06:00,60.4,50.6,22.03,NE,47,0.0,0.0,70,0.00,,---,0.00,VWS V13.01,2013-01-31 21:06:00,
2013-01-31 13:11:00,61.1,51.2,22.02,NE,46,0.0,0.0,70,0.00,,---,0.00,VWS V13.01,2013-01-31 21:11:00,
2013-01-31 13:16:00,61.1,50.9,22.02,NE,46,0.0,0.0,69,0.00,,---,0.00,VWS V13.01,2013-01-31 21:16:00,
2013-01-31 13:21:00,61.4,50.4,22.02,NE,46,0.0,0.0,67,0.00,,---,0.00,VWS V13.01,2013-01-31 21:21:00,
2013-01-31 13:27:00,61.3,50.3,22.02,NE,46,0.0,0.0,67,0.00,,---,0.00,VWS V13.01,2013-01-31 21:27:00,
2013-01-31 13:32:00,61.6,51.0,22.01,NE,45,0.0,0.0,68,0.00,,---,0.00,VWS V13.01,2013-01-31 21:32:00,
2013-01-31 13:37:00,61.8,50.7,22.01,NE,38,0.0,0.0,67,0.00,,---,0.00,VWS V13.01,2013-01-31 21:37:00,
2013-01-31 13:42:00,61.8,50.3,22.01,NE,42,0.0,0.0,66,0.00,,---,0.00,VWS V13.01,2013-01-31 21:42:00,
2013-01-31 13:47:00,61.7,49.8,22.01,NE,40,0.0,0.0,65,0.00,,---,0.00,VWS V13.01,2013-01-31 21:47:00,
2013-01-31 13:52:00,62.0,50.9,22.01,NE,40,0.0,0.0,67,0.00,,---,0.00,VWS V13.01,2013-01-31 21:52:00,
2013-01-31 13:57:00,62.3,51.2,22.00,NE,40,0.0,0.0,67,0.00,,---,0.00,VWS V13.01,2013-01-31 21:57:00,
2013-01-31 14:02:00,62.1,50.2,22.01,NE,40,0.0,0.0,65,0.00,,---,0.00,VWS V13.01,2013-01-31 22:02:00,
2013-01-31 14:07:00,62.0,50.1,22.01,NE,40,0.0,0.0,65,0.00,,---,0.00,VWS V13.01,2013-01-31 22:07:00,
2013-01-31 14:12:00,61.9,50.4,22.00,NE,40,0.0,0.0,66,0.00,,---,0.00,VWS V13.01,2013-01-31 22:12:00,
2013-01-31 14:17:00,61.9,50.4,22.00,NE,39,0.0,0.0,66,0.00,,---,0.00,VWS V13.01,2013-01-31 22:17:00,
2013-01-31 14:22:00,62.1,51.0,22.00,NE,37,0.0,0.0,67,0.00,,---,0.00,VWS V13.01,2013-01-31 22:22:00,
2013-01-31 14:27:00,62.4,51.3,22.00,NE,37,0.0,0.0,67,0.00,,---,0.00,VWS V13.01,2013-01-31 22:27:00,
2013-01-31 14:32:00,62.2,50.3,22.00,NE,37,0.0,0.0,65,0.00,,---,0.00,VWS V13.01,2013-01-31 22:32:00,
2013-01-31 14:37:00,62.2,50.7,22.00,NE,37,0.0,0.0,66,0.00,,---,0.00,VWS V13.01,2013-01-31 22:37:00,
2013-01-31 14:42:00,62.2,50.3,22.00,NE,37,0.0,0.0,65,0.00,,---,0.00,VWS V13.01,2013-01-31 22:42:00,
2013-01-31 14:47:00,62.1,50.2,22.00,NE,37,0.0,0.0,65,0.00,,---,0.00,VWS V13.01,2013-01-31 22:47:00,
2013-01-31 14:52:00,62.2,50.3,21.99,NE,37,0.0,0.0,65,0.00,,---,0.00,VWS V13.01,2013-01-31 22:52:00,
2013-01-31 14:57:00,62.2,50.3,21.99,NE,37,0.0,0.0,65,0.00,,---,0.00,VWS V13.01,2013-01-31 22:57:00,
2013-01-31 15:02:00,62.3,49.6,21.99,NE,37,0.0,0.0,63,0.00,,---,0.00,VWS V13.01,2013-01-31 23:02:00,
2013-01-31 15:07:00,62.3,50.0,21.99,NE,37,0.0,0.0,64,0.00,,---,0.00,VWS V13.01,2013-01-31 23:07:00,
2013-01-31 15:12:00,62.3,49.6,21.99,NE,37,0.0,0.0,63,0.00,,---,0.00,VWS V13.01,2013-01-31 23:12:00,
2013-01-31 15:17:00,62.3,49.6,21.99,NE,37,0.0,0.0,63,0.00,,---,0.00,VWS V13.01,2013-01-31 23:17:00,
2013-01-31 15:22:00,62.3,49.6,21.99,NE,37,0.0,0.0,63,0.00,,---,0.00,VWS V13.01,2013-01-31 23:22:00,
2013-01-31 15:27:00,62.2,49.0,21.99,NE,37,0.0,0.0,62,0.00,,---,0.00,VWS V13.01,2013-01-31 23:27:00,
2013-01-31 15:32:00,62.3,49.1,21.99,NE,37,0.0,0.0,62,0.00,,---,0.00,VWS V13.01,2013-01-31 23:32:00,
2013-01-31 15:37:00,62.3,49.1,21.99,NE,37,0.0,0.0,62,0.00,,---,0.00,VWS V13.01,2013-01-31 23:37:00,
2013-01-31 15:42:00,62.4,50.1,21.99,NE,37,0.0,0.0,64,0.00,,---,0.00,VWS V13.01,2013-01-31 23:42:00,
2013-01-31 15:47:00,62.3,49.6,21.99,NE,37,0.0,0.0,63,0.00,,---,0.00,VWS V13.01,2013-01-31 23:47:00,
2013-01-31 15:52:00,62.3,49.6,21.99,NE,37,0.0,0.0,63,0.00,,---,0.00,VWS V13.01,2013-01-31 23:52:00,
2013-01-31 15:57:00,62.2,49.5,21.99,NE,37,0.0,0.0,63,0.00,,---,0.00,VWS V13.01,2013-01-31 23:57:00,
2013-01-31 16:02:00,62.0,49.3,21.98,NE,37,0.0,0.0,63,0.00,,---,0.00,VWS V13.01,2013-02-01 00:02:00,
2013-01-31 16:07:00,61.9,49.2,21.99,NE,37,0.0,0.0,63,0.00,,---,0.00,VWS V13.01,2013-02-01 00:07:00,
2013-01-31 16:12:00,61.9,49.6,21.98,NE,37,0.0,0.0,64,0.00,,---,0.00,VWS V13.01,2013-02-01 00:12:00,
2013-01-31 16:17:00,62.0,49.7,21.99,NE,37,0.0,0.0,64,0.00,,---,0.00,VWS V13.01,2013-02-01 00:17:00,
2013-01-31 16:22:00,61.9,49.6,21.98,NE,37,0.0,0.0,64,0.00,,---,0.00,VWS V13.01,2013-02-01 00:22:00,
2013-01-31 16:27:00,61.8,49.5,21.98,NE,37,0.0,0.0,64,0.00,,---,0.00,VWS V13.01,2013-02-01 00:27:00,
2013-01-31 16:32:00,61.6,49.7,21.98,NE,37,0.0,0.0,65,0.00,,---,0.00,VWS V13.01,2013-02-01 00:32:00,
2013-01-31 16:37:00,61.4,50.0,21.98,NE,37,0.0,0.0,66,0.00,,---,0.00,VWS V13.01,2013-02-01 00:37:00,
2013-01-31 16:42:00,61.2,49.8,21.98,NE,37,0.0,0.0,66,0.00,,---,0.00,VWS V13.01,2013-02-01 00:42:00,
2013-01-31 16:47:00,61.0,49.6,21.98,NE,37,0.0,0.0,66,0.00,,---,0.00,VWS V13.01,2013-02-01 00:47:00,
2013-01-31 16:52:00,60.8,49.8,21.98,NE,37,0.0,0.0,67,0.00,,---,0.00,VWS V13.01,2013-02-01 00:52:00,
2013-01-31 16:57:00,60.7,49.7,21.98,NE,37,0.0,0.0,67,0.00,,---,0.00,VWS V13.01,2013-02-01 00:57:00,
2013-01-31 17:02:00,60.4,49.4,21.99,NE,37,0.0,0.0,67,0.00,,---,0.00,VWS V13.01,2013-02-01 01:02:00,
2013-01-31 17:07:00,60.2,49.2,21.98,NE,37,0.0,0.0,67,0.00,,---,0.00,VWS V13.01,2013-02-01 01:07:00,
2013-01-31 17:12:00,60.0,49.4,21.99,NE,37,0.0,0.0,68,0.00,,---,0.00,VWS V13.01,2013-02-01 01:12:00,
2013-01-31 17:17:00,59.8,49.2,21.98,NE,37,0.0,0.0,68,0.00,,---,0.00,VWS V13.01,2013-02-01 01:17:00,
2013-01-31 17:22:00,59.6,49.0,21.99,NE,37,0.0,0.0,68,0.00,,---,0.00,VWS V13.01,2013-02-01 01:22:00,
2013-01-31 17:27:00,59.4,49.2,21.99,NE,37,0.0,0.0,69,0.00,,---,0.00,VWS V13.01,2013-02-01 01:27:00,
2013-01-31 17:32:00,59.1,49.0,21.98,NE,37,0.0,0.0,69,0.00,,---,0.00,VWS V13.01,2013-02-01 01:32:00,
2013-01-31 17:37:00,58.8,49.0,21.99,NE,37,0.0,0.0,70,0.00,,---,0.00,VWS V13.01,2013-02-01 01:37:00,
2013-01-31 17:42:00,58.1,48.4,21.98,NE,37,0.0,0.0,70,0.00,,---,0.00,VWS V13.01,2013-02-01 01:42:00,
2013-01-31 17:47:00,57.4,48.1,21.99,NE,37,0.0,0.0,71,0.00,,---,0.00,VWS V13.01,2013-02-01 01:47:00,
2013-01-31 17:52:00,57.0,48.1,21.99,NE,37,0.0,0.0,72,0.00,,---,0.00,VWS V13.01,2013-02-01 01:52:00,
2013-01-31 17:57:00,56.2,47.3,21.99,NE,37,0.0,0.0,72,0.00,,---,0.00,VWS V13.01,2013-02-01 01:57:00,
2013-01-31 18:02:00,55.5,47.0,21.98,NE,37,0.0,0.0,73,0.00,,---,0.00,VWS V13.01,2013-02-01 02:02:00,
2013-01-31 18:07:00,55.0,46.5,21.99,NE,37,0.0,0.0,73,0.00,,---,0.00,VWS V13.01,2013-02-01 02:07:00,
2013-01-31 18:12:00,54.7,46.6,21.99,NE,37,0.0,0.0,74,0.00,,---,0.00,VWS V13.01,2013-02-01 02:12:00,
2013-01-31 18:17:00,54.4,46.3,21.99,NE,37,0.0,0.0,74,0.00,,---,0.00,VWS V13.01,2013-02-01 02:17:00,
2013-01-31 18:22:00,54.0,46.3,21.99,NE,37,0.0,0.0,75,0.00,,---,0.00,VWS V13.01,2013-02-01 02:22:00,
2013-01-31 18:27:00,53.6,46.2,21.99,NE,37,0.0,0.0,76,0.00,,---,0.00,VWS V13.01,2013-02-01 02:27:00,
2013-01-31 18:32:00,53.3,45.9,21.99,NE,37,0.0,0.0,76,0.00,,---,0.00,VWS V13.01,2013-02-01 02:32:00,
2013-01-31 18:37:00,53.1,46.1,21.99,NE,37,0.0,0.0,77,0.00,,---,0.00,VWS V13.01,2013-02-01 02:37:00,
2013-01-31 18:42:00,52.7,45.7,22.00,NE,37,0.0,0.0,77,0.00,,---,0.00,VWS V13.01,2013-02-01 02:42:00,
2013-01-31 18:47:00,52.5,45.8,21.99,NE,37,0.0,0.0,78,0.00,,---,0.00,VWS V13.01,2013-02-01 02:47:00,
2013-01-31 18:52:00,52.3,45.3,21.99,NE,37,0.0,0.0,77,0.00,,---,0.00,VWS V13.01,2013-02-01 02:52:00,
2013-01-31 18:57:00,52.1,45.5,22.00,NE,37,0.0,0.0,78,0.00,,---,0.00,VWS V13.01,2013-02-01 02:57:00,
2013-01-31 19:02:00,51.7,45.1,22.00,NE,37,0.0,0.0,78,0.00,,---,0.00,VWS V13.01,2013-02-01 03:02:00,
2013-01-31 19:07:00,51.5,45.2,22.00,NE,37,0.0,0.0,79,0.00,,---,0.00,VWS V13.01,2013-02-01 03:07:00,
2013-01-31 19:12:00,51.3,45.0,21.99,NE,37,0.0,0.0,79,0.00,,---,0.00,VWS V13.01,2013-02-01 03:12:00,
2013-01-31 19:18:00,50.9,44.6,22.00,NE,37,0.0,0.0,79,0.00,,---,0.00,VWS V13.01,2013-02-01 03:18:00,
2013-01-31 19:23:00,50.8,44.5,22.00,NE,37,0.0,0.0,79,0.00,,---,0.00,VWS V13.01,2013-02-01 03:23:00,
2013-01-31 19:28:00,50.4,44.5,22.00,NE,37,0.0,0.0,80,0.00,,---,0.00,VWS V13.01,2013-02-01 03:28:00,
2013-01-31 19:33:00,50.1,44.2,22.00,NE,37,0.0,0.0,80,0.00,,---,0.00,VWS V13.01,2013-02-01 03:33:00,
2013-01-31 19:38:00,49.9,44.3,22.00,NE,37,0.0,0.0,81,0.00,,---,0.00,VWS V13.01,2013-02-01 03:38:00,
2013-01-31 19:43:00,49.7,44.4,22.00,NE,37,0.0,0.0,82,0.00,,---,0.00,VWS V13.01,2013-02-01 03:43:00,
2013-01-31 19:48:00,49.7,44.4,22.00,NE,37,0.0,0.0,82,0.00,,---,0.00,VWS V13.01,2013-02-01 03:48:00,
2013-01-31 19:53:00,49.6,44.0,21.99,NE,37,0.0,0.0,81,0.00,,---,0.00,VWS V13.01,2013-02-01 03:53:00,
2013-01-31 19:58:00,49.5,44.2,22.00,NE,37,0.0,0.0,82,0.00,,---,0.00,VWS V13.01,2013-02-01 03:58:00,
2013-01-31 20:03:00,49.3,44.4,22.00,NE,37,0.0,0.0,83,0.00,,---,0.00,VWS V13.01,2013-02-01 04:03:00,
2013-01-31 20:08:00,49.0,44.1,22.00,NE,37,0.0,0.0,83,0.00,,---,0.00,VWS V13.01,2013-02-01 04:08:00,
2013-01-31 20:13:00,48.7,43.5,21.99,NE,37,0.0,0.0,82,0.00,,---,0.00,VWS V13.01,2013-02-01 04:13:00,
2013-01-31 20:18:00,48.5,43.6,22.00,NE,37,0.0,0.0,83,0.00,,---,0.00,VWS V13.01,2013-02-01 04:18:00,
2013-01-31 20:23:00,48.5,43.6,22.00,NE,37,0.0,0.0,83,0.00,,---,0.00,VWS V13.01,2013-02-01 04:23:00,
2013-01-31 20:28:00,48.4,43.8,22.00,NE,37,0.0,0.0,84,0.00,,---,0.00,VWS V13.01,2013-02-01 04:28:00,
2013-01-31 20:33:00,48.2,43.6,22.00,NE,37,0.0,0.0,84,0.00,,---,0.00,VWS V13.01,2013-02-01 04:33:00,
2013-01-31 20:38:00,48.0,43.4,22.00,NE,37,0.0,0.0,84,0.00,,---,0.00,VWS V13.01,2013-02-01 04:38:00,
2013-01-31 20:43:00,47.8,43.2,22.00,NE,37,0.0,0.0,84,0.00,,---,0.00,VWS V13.01,2013-02-01 04:43:00,
2013-01-31 20:48:00,47.5,42.9,22.00,NE,37,0.0,0.0,84,0.00,,---,0.00,VWS V13.01,2013-02-01 04:48:00,
2013-01-31 20:53:00,47.4,43.1,22.00,NE,37,0.0,0.0,85,0.00,,---,0.00,VWS V13.01,2013-02-01 04:53:00,
2013-01-31 20:58:00,47.4,43.1,22.00,NE,37,0.0,0.0,85,0.00,,---,0.00,VWS V13.01,2013-02-01 04:58:00,
2013-01-31 21:00:00,47.4,43.1,22.00,NE,37,0.0,0.0,85,0.00,,---,0.00,VWS V13.01,2013-02-01 05:00:00,
2013-01-31 21:04:00,47.1,42.8,22.00,NE,37,0.0,0.0,85,0.00,,---,0.00,VWS V13.01,2013-02-01 05:04:00,
2013-01-31 21:05:00,47.0,42.7,22.00,NE,37,0.0,0.0,85,0.00,,---,0.00,VWS V13.01,2013-02-01 05:05:00,
2013-01-31 21:10:00,47.1,43.1,22.00,NE,37,0.0,0.0,86,0.00,,---,0.00,VWS V13.01,2013-02-01 05:10:00,
2013-01-31 21:15:00,47.1,43.1,22.00,NE,37,0.0,0.0,86,0.00,,---,0.00,VWS V13.01,2013-02-01 05:15:00,
2013-01-31 21:20:00,47.2,43.2,22.00,NE,37,0.0,0.0,86,0.00,,---,0.00,VWS V13.01,2013-02-01 05:20:00,
2013-01-31 21:25:00,47.1,43.1,22.00,NE,37,0.0,0.0,86,0.00,,---,0.00,VWS V13.01,2013-02-01 05:25:00,
2013-01-31 21:30:00,47.0,43.0,22.00,NE,37,0.0,0.0,86,0.00,,---,0.00,VWS V13.01,2013-02-01 05:30:00,
2013-01-31 21:35:00,47.2,43.8,22.01,NE,37,0.0,1.0,88,0.00,,---,0.00,VWS V13.01,2013-02-01 05:35:00,
2013-01-31 21:40:00,47.5,44.4,22.00,NE,37,0.0,1.0,89,0.00,,---,0.00,VWS V13.01,2013-02-01 05:40:00,
2013-01-31 21:45:00,47.6,44.2,22.00,NE,37,0.0,1.0,88,0.00,,---,0.00,VWS V13.01,2013-02-01 05:45:00,
2013-01-31 21:50:00,47.6,43.9,22.00,NE,37,0.0,1.0,87,0.00,,---,0.00,VWS V13.01,2013-02-01 05:50:00,
2013-01-31 21:55:00,47.5,43.8,22.00,NE,37,0.0,1.0,87,0.00,,---,0.00,VWS V13.01,2013-02-01 05:55:00,
2013-01-31 22:00:00,47.4,43.7,22.01,NE,37,0.0,1.0,87,0.00,,---,0.00,VWS V13.01,2013-02-01 06:00:00,
2013-01-31 22:05:00,47.1,43.4,22.01,NE,37,0.0,0.0,87,0.00,,---,0.00,VWS V13.01,2013-02-01 06:05:00,
2013-01-31 22:10:00,46.8,43.4,22.00,NE,37,0.0,0.0,88,0.00,,---,0.00,VWS V13.01,2013-02-01 06:10:00,
2013-01-31 22:15:00,46.9,43.8,22.00,NE,37,0.0,0.0,89,0.00,,---,0.00,VWS V13.01,2013-02-01 06:15:00,
2013-01-31 22:20:00,46.9,43.8,22.00,NE,37,0.0,0.0,89,0.00,,---,0.00,VWS V13.01,2013-02-01 06:20:00,
2013-01-31 22:25:00,46.9,43.8,22.01,NE,37,0.0,0.0,89,0.00,,---,0.00,VWS V13.01,2013-02-01 06:25:00,
2013-01-31 22:30:00,46.8,43.7,22.01,NE,37,0.0,0.0,89,0.00,,---,0.00,VWS V13.01,2013-02-01 06:30:00,
2013-01-31 22:35:00,46.8,44.0,22.01,NE,37,0.0,0.0,90,0.00,,---,0.00,VWS V13.01,2013-02-01 06:35:00,
2013-01-31 22:40:00,46.9,44.1,22.01,NE,37,0.0,0.0,90,0.00,,---,0.00,VWS V13.01,2013-02-01 06:40:00,
2013-01-31 22:45:00,46.9,44.1,22.01,NE,37,0.0,0.0,90,0.00,,---,0.00,VWS V13.01,2013-02-01 06:45:00,
2013-01-31 22:50:00,46.9,44.4,22.01,NE,37,0.0,0.0,91,0.00,,---,0.00,VWS V13.01,2013-02-01 06:50:00,
2013-01-31 22:55:00,46.9,44.1,22.01,NE,37,0.0,0.0,90,0.00,,---,0.00,VWS V13.01,2013-02-01 06:55:00,
2013-01-31 23:00:00,46.8,44.0,22.02,NE,37,0.0,0.0,90,0.00,,---,0.00,VWS V13.01,2013-02-01 07:00:00,
2013-01-31 23:05:00,46.6,43.5,22.01,NE,37,0.0,0.0,89,0.00,,---,0.00,VWS V13.01,2013-02-01 07:05:00,
2013-01-31 23:10:00,46.3,43.2,22.01,NE,37,0.0,0.0,89,0.00,,---,0.00,VWS V13.01,2013-02-01 07:10:00,
2013-01-31 23:15:00,46.0,43.0,22.01,NE,37,0.0,0.0,89,0.00,,---,0.00,VWS V13.01,2013-02-01 07:15:00,
2013-01-31 23:20:00,45.8,43.0,22.02,NE,37,0.0,0.0,90,0.00,,---,0.00,VWS V13.01,2013-02-01 07:20:00,
2013-01-31 23:25:00,45.5,42.7,22.01,NE,37,0.0,0.0,90,0.00,,---,0.00,VWS V13.01,2013-02-01 07:25:00,
2013-01-31 23:30:00,45.4,42.3,22.02,NE,37,0.0,0.0,89,0.00,,---,0.00,VWS V13.01,2013-02-01 07:30:00,
2013-01-31 23:35:00,45.1,42.1,22.02,NE,37,0.0,0.0,89,0.00,,---,0.00,VWS V13.01,2013-02-01 07:35:00,
2013-01-31 23:40:00,44.8,42.0,22.02,NE,37,0.0,0.0,90,0.00,,---,0.00,VWS V13.01,2013-02-01 07:40:00,
2013-01-31 23:45:00,45.1,42.9,22.01,NE,37,1.0,2.0,92,0.00,,---,0.00,VWS V13.01,2013-02-01 07:45:00,
2013-01-31 23:50:00,45.4,43.2,22.02,NE,37,0.0,2.0,92,0.00,,---,0.00,VWS V13.01,2013-02-01 07:50:00,
2013-01-31 23:55:00,45.3,42.8,22.02,NE,37,0.0,2.0,91,0.00,,---,0.00,VWS V13.01,2013-02-01 07:55:00,